Location: Stamford Observatory
(41.1241°N, 73.5498°W)
Time: 03:51:21
(UTC-04:00)

IRS-P3 - Visible Passes

Search period start: 26 April 2017 00:00
Search period end: 06 May 2017 00:00
Orbit: 814 x 819 km, 98.7° (Epoch: 24 April)

Date Brightness Start Highest point End Pass type
(mag) Time Alt. Az. Time Alt. Az. Time Alt. Az.
26 Apr 4.4 02:30:07 10° NNE 02:34:45 64° NE 02:34:45 64° NE visible
26 Apr 5.9 04:11:48 10° NNW 04:14:50 15° WNW 04:16:02 14° WNW visible
27 Apr 5.0 02:08:34 10° NNE 02:12:51 43° ENE 02:12:51 43° ENE visible
27 Apr 5.5 03:49:16 10° NNW 03:53:23 23° WNW 03:54:09 23° WNW visible
28 Apr 5.6 01:47:14 10° NE 01:50:58 28° ENE 01:50:58 28° ENE visible
28 Apr 4.9 03:27:05 10° N 03:31:53 35° WNW 03:32:15 35° WNW visible
29 Apr 6.2 01:26:16 10° NE 01:29:04 18° E 01:29:04 18° E visible
29 Apr 4.3 03:05:07 10° N 03:10:19 54° WNW 03:10:22 54° WNW visible
30 Apr 6.6 01:06:17 10° ENE 01:07:11 11° E 01:07:11 11° E visible
30 Apr 4.0 02:43:19 10° NNE 02:48:28 82° NNW 02:48:28 82° NNW visible
30 Apr 6.2 04:25:57 10° NW 04:27:49 12° WNW 04:29:41 10° WNW visible
01 May 4.4 02:21:39 10° NNE 02:26:35 60° E 02:26:35 60° E visible
01 May 5.8 04:02:55 10° NNW 04:06:26 18° WNW 04:07:52 16° W visible
02 May 5.1 02:00:11 10° NNE 02:04:41 38° E 02:04:41 38° E visible
02 May 5.3 03:40:33 10° N 03:44:59 27° WNW 03:45:58 26° W visible
03 May 5.8 01:38:58 10° NE 01:42:47 24° E 01:42:47 24° E visible
03 May 4.7 03:18:27 10° N 03:23:26 41° WNW 03:24:05 40° W visible
04 May 6.3 01:18:14 10° NE 01:20:53 16° E 01:20:53 16° E visible
04 May 4.1 02:56:33 10° N 03:01:49 65° WNW 03:02:10 63° W visible
05 May 4.0 02:34:48 10° NNE 02:40:09 82° ESE 02:40:16 81° SE visible
05 May 6.1 04:16:46 10° NNW 04:19:26 14° WNW 04:21:34 11° W visible
